| time (UTC) | temp F | wind direction | speed MPH | gust MPH | rain 1hr in | rain 24hr in | rain mn in | humidity % | barometer mb |
| 20260510011012 | 53 | 0 | 0.0 | 0.0 | 0.00 | 0.07 | 0.07 | 83 | 1009.9 |
| 20260510010512 | 53 | 0 | 0.0 | 0.0 | 0.00 | 0.07 | 0.07 | 83 | 1009.7 |
| 20260510010027 | 53 | 0 | 0.0 | 0.0 | 0.00 | 0.07 | 0.07 | 81 | 1009.9 |
| 20260510005511 | 54 | 0 | 0.0 | 0.0 | 0.00 | 0.07 | 0.07 | 81 | 1009.9 |
| 20260510005012 | 54 | 0 | 0.0 | 0.0 | 0.00 | 0.07 | 0.07 | 81 | 1009.8 |
| 20260510004527 | 55 | 0 | 0.0 | 0.0 | 0.00 | 0.07 | 0.07 | 81 | 1009.7 |
| 20260510004011 | 55 | 0 | 0.0 | 0.0 | 0.00 | 0.07 | 0.07 | 80 | 1009.6 |
| 20260510003511 | 56 | 0 | 0.0 | 0.0 | 0.00 | 0.07 | 0.07 | 78 | 1009.6 |
| 20260510003055 | 56 | 0 | 0.0 | 0.0 | 0.00 | 0.07 | 0.07 | 78 | 1009.5 |
| 20260510002513 | 57 | 0 | 0.0 | 0.0 | 0.00 | 0.07 | 0.07 | 77 | 1009.5 |
| 20260510002012 | 57 | 0 | 0.0 | 0.0 | 0.00 | 0.07 | 0.07 | 76 | 1009.4 |
| 20260510001531 | 58 | 0 | 0.0 | 0.0 | 0.00 | 0.07 | 0.07 | 75 | 1009.5 |
| 20260510001013 | 58 | 0 | 0.0 | 0.0 | 0.00 | 0.07 | 0.07 | 75 | 1009.3 |
| 20260510000513 | 59 | 0 | 0.0 | 0.0 | 0.00 | 0.07 | 0.07 | 74 | 1009.3 |
| 20260510000030 | 59 | 0 | 0.0 | 0.0 | 0.00 | 0.07 | 0.07 | 74 | 1009.2 |
| 20260509235512 | 60 | 0 | 0.0 | 0.0 | 0.00 | 0.07 | 0.07 | 73 | 1009.1 |
| 20260509235011 | 60 | 0 | 0.0 | 0.0 | 0.00 | 0.07 | 0.07 | 72 | 1009.1 |
| 20260509234530 | 61 | 0 | 0.0 | 0.0 | 0.00 | 0.07 | 0.07 | 71 | 1009.2 |
| 20260509234010 | 61 | 0 | 0.0 | 0.0 | 0.00 | 0.07 | 0.07 | 72 | 1009.2 |
| 20260509233511 | 61 | 0 | 0.0 | 0.0 | 0.00 | 0.07 | 0.07 | 71 | 1009.3 |
| 20260509233030 | 62 | 0 | 0.0 | 0.0 | 0.00 | 0.07 | 0.07 | 70 | 1009.2 |
| 20260509232512 | 62 | 0 | 0.0 | 0.0 | 0.00 | 0.07 | 0.07 | 69 | 1009.0 |
| 20260509232010 | 62 | 0 | 0.0 | 0.0 | 0.00 | 0.07 | 0.07 | 69 | 1009.1 |
| 20260509231532 | 63 | 0 | 0.0 | 0.0 | 0.00 | 0.07 | 0.07 | 69 | 1009.0 |
| 20260509231015 | 63 | 0 | 0.0 | 0.0 | 0.00 | 0.07 | 0.07 | 69 | 1009.1 |
| 20260509230510 | 63 | 0 | 0.0 | 0.0 | 0.00 | 0.07 | 0.07 | 69 | 1009.1 |
| 20260509230033 | 63 | 0 | 0.0 | 0.0 | 0.00 | 0.07 | 0.07 | 69 | 1009.1 |
| 20260509225540 | 63 | 0 | 0.0 | 0.0 | 0.00 | 0.07 | 0.07 | 69 | 1009.1 |
| 20260509225009 | 62 | 0 | 0.0 | 0.0 | 0.00 | 0.07 | 0.07 | 69 | 1009.2 |
| 20260509224532 | 62 | 0 | 0.0 | 0.0 | 0.00 | 0.07 | 0.07 | 69 | 1009.2 |
| 20260509224010 | 62 | 0 | 0.0 | 0.0 | 0.00 | 0.07 | 0.07 | 70 | 1009.3 |
| 20260509223511 | 62 | 0 | 0.0 | 0.0 | 0.00 | 0.07 | 0.07 | 70 | 1009.3 |
| 20260509223031 | 62 | 0 | 0.0 | 0.0 | 0.00 | 0.07 | 0.07 | 69 | 1009.2 |
| 20260509222513 | 62 | 0 | 0.0 | 0.0 | 0.00 | 0.07 | 0.07 | 69 | 1009.2 |
| 20260509222012 | 62 | 0 | 0.0 | 0.0 | 0.00 | 0.07 | 0.07 | 70 | 1009.2 |
| 20260509221531 | 62 | 0 | 0.0 | 0.0 | 0.00 | 0.07 | 0.07 | 69 | 1009.2 |
| 20260509221011 | 62 | 0 | 0.0 | 0.0 | 0.00 | 0.07 | 0.07 | 69 | 1009.1 |
| 20260509220511 | 62 | 0 | 0.0 | 0.0 | 0.00 | 0.07 | 0.07 | 68 | 1009.4 |
| 20260509220030 | 63 | 0 | 0.0 | 0.0 | 0.00 | 0.07 | 0.07 | 69 | 1009.3 |
| 20260509215513 | 62 | 0 | 0.0 | 0.0 | 0.00 | 0.07 | 0.07 | 69 | 1009.4 |
| 20260509215013 | 62 | 0 | 0.0 | 0.0 | 0.00 | 0.07 | 0.07 | 70 | 1009.5 |
| 20260509214531 | 62 | 0 | 0.0 | 0.0 | 0.00 | 0.07 | 0.07 | 73 | 1009.4 |
| 20260509214010 | 62 | 0 | 0.0 | 0.0 | 0.00 | 0.07 | 0.07 | 69 | 1009.4 |
| 20260509213513 | 62 | 0 | 0.0 | 0.0 | 0.00 | 0.07 | 0.07 | 70 | 1009.5 |
| 20260509213030 | 62 | 0 | 0.0 | 0.0 | 0.00 | 0.07 | 0.07 | 70 | 1009.5 |
| 20260509212511 | 62 | 0 | 0.0 | 0.0 | 0.00 | 0.07 | 0.07 | 72 | 1009.6 |
| 20260509212013 | 62 | 0 | 0.0 | 0.0 | 0.00 | 0.07 | 0.07 | 72 | 1009.7 |
| 20260509211530 | 62 | 0 | 0.0 | 0.0 | 0.00 | 0.07 | 0.07 | 71 | 1009.9 |
| 20260509211011 | 62 | 0 | 0.0 | 0.0 | 0.00 | 0.07 | 0.07 | 71 | 1010.0 |
| 20260509210511 | 62 | 0 | 0.0 | 0.0 | 0.00 | 0.07 | 0.07 | 71 | 1010.0 |
| 20260509210028 | 62 | 0 | 0.0 | 0.0 | 0.00 | 0.07 | 0.07 | 71 | 1010.0 |
| 20260509205510 | 62 | 0 | 0.0 | 0.0 | 0.00 | 0.07 | 0.07 | 73 | 1010.1 |
| 20260509205010 | 62 | 0 | 0.0 | 0.0 | 0.00 | 0.07 | 0.07 | 71 | 1010.0 |
| 20260509204529 | 62 | 0 | 0.0 | 0.0 | 0.00 | 0.07 | 0.07 | 69 | 1009.9 |
| 20260509204016 | 62 | 0 | 0.0 | 0.0 | 0.00 | 0.07 | 0.07 | 68 | 1009.8 |
| 20260509203511 | 62 | 0 | 0.0 | 0.0 | 0.00 | 0.07 | 0.07 | 68 | 1009.6 |
| 20260509203035 | 62 | 0 | 0.0 | 0.0 | 0.00 | 0.07 | 0.07 | 66 | 1009.6 |
| 20260509202510 | 63 | 0 | 0.0 | 0.0 | 0.00 | 0.07 | 0.07 | 67 | 1009.6 |
| 20260509202016 | 63 | 0 | 0.0 | 0.0 | 0.00 | 0.07 | 0.07 | 68 | 1009.6 |
| 20260509201528 | 63 | 0 | 0.0 | 0.0 | 0.00 | 0.07 | 0.07 | 67 | 1009.7 |
| 20260509201014 | 63 | 0 | 0.0 | 0.0 | 0.00 | 0.07 | 0.07 | 66 | 1009.8 |
| 20260509200511 | 64 | 0 | 0.0 | 0.0 | 0.00 | 0.07 | 0.07 | 65 | 1009.7 |
| 20260509200029 | 64 | 0 | 0.0 | 0.0 | 0.00 | 0.07 | 0.07 | 62 | 1009.8 |
| 20260509195513 | 64 | 0 | 0.0 | 0.0 | 0.00 | 0.07 | 0.07 | 64 | 1009.7 |
| 20260509195010 | 64 | 0 | 0.0 | 0.0 | 0.00 | 0.07 | 0.07 | 63 | 1009.9 |
| 20260509194534 | 64 | 0 | 0.0 | 0.0 | 0.00 | 0.07 | 0.07 | 60 | 1010.0 |
| 20260509194015 | 65 | 0 | 0.0 | 0.0 | 0.00 | 0.07 | 0.07 | 61 | 1010.1 |
| 20260509193511 | 64 | 0 | 0.0 | 0.0 | 0.00 | 0.07 | 0.07 | 62 | 1010.0 |
| 20260509193030 | 64 | 0 | 0.0 | 0.0 | 0.00 | 0.07 | 0.07 | 68 | 1010.0 |
| 20260509192511 | 63 | 0 | 0.0 | 0.0 | 0.00 | 0.07 | 0.07 | 67 | 1010.1 |
| 20260509192010 | 63 | 0 | 0.0 | 0.0 | 0.00 | 0.07 | 0.07 | 68 | 1010.3 |
| 20260509191530 | 62 | 0 | 0.0 | 0.0 | 0.00 | 0.07 | 0.07 | 67 | 1010.1 |
| 20260509191014 | 63 | 0 | 0.0 | 0.0 | 0.00 | 0.07 | 0.07 | 68 | 1010.2 |
| 20260509190510 | 62 | 0 | 0.0 | 0.0 | 0.00 | 0.07 | 0.07 | 69 | 1010.3 |
| 20260509190027 | 62 | 0 | 0.0 | 0.0 | 0.00 | 0.07 | 0.07 | 70 | 1010.3 |
| 20260509185511 | 61 | 0 | 0.0 | 0.0 | 0.00 | 0.07 | 0.07 | 70 | 1010.3 |
| 20260509185011 | 62 | 0 | 0.0 | 0.0 | 0.00 | 0.07 | 0.07 | 70 | 1010.3 |
| 20260509184534 | 62 | 0 | 0.0 | 0.0 | 0.00 | 0.07 | 0.07 | 73 | 1010.5 |
| 20260509184015 | 62 | 0 | 0.0 | 0.0 | 0.00 | 0.07 | 0.07 | 72 | 1010.6 |
| 20260509183511 | 61 | 0 | 0.0 | 0.0 | 0.00 | 0.07 | 0.07 | 76 | 1010.5 |
| 20260509183030 | 60 | 0 | 0.0 | 0.0 | 0.00 | 0.07 | 0.07 | 75 | 1010.6 |
| 20260509182510 | 60 | 0 | 0.0 | 0.0 | 0.00 | 0.07 | 0.07 | 76 | 1010.8 |
| 20260509182011 | 60 | 0 | 0.0 | 0.0 | 0.00 | 0.07 | 0.07 | 79 | 1010.9 |
| 20260509181542 | 59 | 0 | 0.0 | 0.0 | 0.00 | 0.07 | 0.07 | 79 | 1010.8 |
| 20260509181011 | 59 | 0 | 0.0 | 0.0 | 0.00 | 0.07 | 0.07 | 79 | 1010.9 |
| 20260509180516 | 58 | 0 | 0.0 | 0.0 | 0.00 | 0.07 | 0.07 | 81 | 1011.2 |
| 20260509180028 | 57 | 0 | 0.0 | 0.0 | 0.00 | 0.07 | 0.07 | 81 | 1011.3 |
| 20260509175511 | 57 | 0 | 0.0 | 0.0 | 0.00 | 0.07 | 0.07 | 81 | 1011.4 |
| 20260509175011 | 56 | 0 | 0.0 | 0.0 | 0.00 | 0.07 | 0.07 | 81 | 1011.4 |
| 20260509174532 | 56 | 0 | 0.0 | 0.0 | 0.00 | 0.07 | 0.07 | 81 | 1011.3 |
| 20260509174012 | 56 | 0 | 0.0 | 0.0 | 0.00 | 0.07 | 0.07 | 82 | 1011.3 |
| 20260509173511 | 56 | 0 | 0.0 | 0.0 | 0.00 | 0.07 | 0.07 | 82 | 1011.2 |
| 20260509173027 | 56 | 0 | 0.0 | 0.0 | 0.00 | 0.07 | 0.07 | 82 | 1011.4 |
| 20260509172511 | 56 | 0 | 0.0 | 0.0 | 0.00 | 0.07 | 0.07 | 81 | 1011.5 |
| 20260509172011 | 56 | 0 | 0.0 | 0.0 | 0.00 | 0.07 | 0.07 | 82 | 1011.5 |
| 20260509171528 | 56 | 0 | 0.0 | 0.0 | 0.00 | 0.07 | 0.07 | 80 | 1011.4 |
| 20260509171013 | 56 | 0 | 0.0 | 0.0 | 0.00 | 0.07 | 0.07 | 82 | 1011.3 |
| 20260509170511 | 56 | 0 | 0.0 | 0.0 | 0.00 | 0.07 | 0.07 | 81 | 1011.3 |
| 20260509170030 | 56 | 0 | 0.0 | 0.0 | 0.00 | 0.07 | 0.07 | 79 | 1011.3 |
| 20260509165510 | 56 | 0 | 0.0 | 0.0 | 0.00 | 0.07 | 0.07 | 81 | 1011.3 |
| 20260509165010 | 56 | 0 | 0.0 | 0.0 | 0.00 | 0.07 | 0.07 | 81 | 1011.5 |
| 20260509164543 | 56 | 0 | 0.0 | 0.0 | 0.00 | 0.07 | 0.07 | 80 | 1011.6 |
| 20260509164011 | 56 | 0 | 0.0 | 0.0 | 0.00 | 0.07 | 0.07 | 80 | 1011.7 |
| 20260509163515 | 56 | 0 | 0.0 | 0.0 | 0.00 | 0.07 | 0.07 | 81 | 1011.8 |
| 20260509163032 | 56 | 0 | 0.0 | 0.0 | 0.00 | 0.07 | 0.07 | 81 | 1011.8 |
| 20260509162516 | 56 | 0 | 0.0 | 0.0 | 0.00 | 0.07 | 0.07 | 82 | 1011.8 |
| 20260509162015 | 56 | 0 | 0.0 | 0.0 | 0.01 | 0.07 | 0.07 | 83 | 1011.9 |
| 20260509161535 | 56 | 0 | 0.0 | 0.0 | 0.02 | 0.07 | 0.07 | 84 | 1011.9 |
| 20260509161011 | 55 | 0 | 0.0 | 0.0 | 0.02 | 0.07 | 0.07 | 82 | 1011.9 |
| 20260509160513 | 55 | 0 | 0.0 | 0.0 | 0.04 | 0.07 | 0.07 | 83 | 1011.7 |
| 20260509160031 | 55 | 0 | 0.0 | 0.0 | 0.05 | 0.07 | 0.07 | 85 | 1011.6 |
| 20260509155511 | 55 | 0 | 0.0 | 0.0 | 0.05 | 0.07 | 0.07 | 85 | 1011.7 |
| 20260509155011 | 54 | 0 | 0.0 | 0.0 | 0.06 | 0.07 | 0.07 | 86 | 1011.5 |
| 20260509154531 | 54 | 0 | 0.0 | 0.0 | 0.06 | 0.07 | 0.07 | 86 | 1011.4 |
| 20260509154011 | 54 | 0 | 0.0 | 0.0 | 0.06 | 0.07 | 0.07 | 86 | 1011.3 |
| 20260509153512 | 54 | 0 | 0.0 | 0.0 | 0.06 | 0.07 | 0.07 | 86 | 1011.5 |
| 20260509153030 | 54 | 0 | 0.0 | 0.0 | 0.07 | 0.07 | 0.07 | 85 | 1011.6 |
| 20260509152512 | 54 | 0 | 0.0 | 0.0 | 0.07 | 0.07 | 0.07 | 85 | 1011.8 |
| 20260509152013 | 54 | 0 | 0.0 | 0.0 | 0.06 | 0.06 | 0.06 | 84 | 1012.0 |
| 20260509151528 | 54 | 0 | 0.0 | 0.0 | 0.05 | 0.05 | 0.05 | 83 | 1012.1 |
| 20260509151012 | 55 | 0 | 0.0 | 0.0 | 0.04 | 0.04 | 0.04 | 82 | 1012.2 |
| 20260509150514 | 55 | 0 | 0.0 | 0.0 | 0.03 | 0.03 | 0.03 | 82 | 1012.2 |
| 20260509150030 | 55 | 0 | 0.0 | 0.0 | 0.02 | 0.02 | 0.02 | 80 | 1012.0 |
| 20260509145515 | 55 | 0 | 0.0 | 0.0 | 0.01 | 0.01 | 0.01 | 80 | 1012.0 |
| 20260509145012 | 56 | 0 | 0.0 | 0.0 | 0.01 | 0.01 | 0.01 | 78 | 1012.2 |
| 20260509144537 | 56 | 0 | 0.0 | 0.0 | 0.01 | 0.01 | 0.01 | 76 | 1012.3 |
| 20260509144012 | 56 | 0 | 0.0 | 0.0 | 0.01 | 0.01 | 0.01 | 78 | 1012.3 |
| 20260509143512 | 56 | 0 | 0.0 | 0.0 | 0.01 | 0.01 | 0.01 | 75 | 1012.3 |
| 20260509143030 | 57 | 0 | 0.0 | 0.0 | 0.00 | 0.00 | 0.00 | 76 | 1012.4 |
| 20260509142511 | 57 | 0 | 0.0 | 0.0 | 0.00 | 0.00 | 0.00 | 75 | 1012.3 |
| 20260509142012 | 57 | 0 | 0.0 | 0.0 | 0.00 | 0.00 | 0.00 | 71 | 1012.2 |
| 20260509141530 | 57 | 0 | 0.0 | 0.0 | 0.00 | 0.00 | 0.00 | 70 | 1012.3 |
| 20260509141017 | 57 | 0 | 0.0 | 0.0 | 0.00 | 0.00 | 0.00 | 68 | 1011.9 |
| 20260509140515 | 57 | 0 | 0.0 | 0.0 | 0.00 | 0.00 | 0.00 | 66 | 1011.9 |
| 20260509140027 | 57 | 0 | 0.0 | 0.0 | 0.00 | 0.00 | 0.00 | 69 | 1011.9 |
| 20260509135512 | 57 | 0 | 0.0 | 0.0 | 0.00 | 0.00 | 0.00 | 67 | 1011.6 |
| 20260509135012 | 57 | 0 | 0.0 | 0.0 | 0.00 | 0.00 | 0.00 | 68 | 1011.6 |
| 20260509134527 | 57 | 0 | 0.0 | 0.0 | 0.00 | 0.00 | 0.00 | 68 | 1011.7 |
| 20260509134012 | 56 | 0 | 0.0 | 0.0 | 0.00 | 0.00 | 0.00 | 68 | 1011.5 |
| 20260509133512 | 56 | 0 | 0.0 | 0.0 | 0.00 | 0.00 | 0.00 | 69 | 1011.5 |
| 20260509133030 | 56 | 0 | 0.0 | 0.0 | 0.00 | 0.00 | 0.00 | 72 | 1011.7 |
| 20260509132512 | 56 | 0 | 0.0 | 0.0 | 0.00 | 0.00 | 0.00 | 74 | 1011.6 |
| 20260509132012 | 55 | 0 | 0.0 | 0.0 | 0.00 | 0.00 | 0.00 | 71 | 1011.5 |
| 20260509131529 | 55 | 0 | 0.0 | 0.0 | 0.00 | 0.00 | 0.00 | 71 | 1011.2 |
| 20260509131014 | 55 | 0 | 0.0 | 0.0 | 0.00 | 0.00 | 0.00 | 71 | 1011.3 |
| 20260509130513 | 55 | 0 | 0.0 | 0.0 | 0.00 | 0.00 | 0.00 | 76 | 1011.6 |
| 20260509130029 | 55 | 0 | 0.0 | 0.0 | 0.00 | 0.00 | 0.00 | 76 | 1011.6 |
| 20260509125512 | 55 | 0 | 0.0 | 0.0 | 0.00 | 0.00 | 0.00 | 76 | 1011.3 |
| 20260509125011 | 55 | 0 | 0.0 | 0.0 | 0.00 | 0.00 | 0.00 | 75 | 1011.4 |
| 20260509124527 | 55 | 0 | 0.0 | 0.0 | 0.00 | 0.00 | 0.00 | 77 | 1011.5 |
| 20260509124012 | 54 | 0 | 0.0 | 0.0 | 0.00 | 0.00 | 0.00 | 76 | 1011.4 |
| 20260509123510 | 54 | 0 | 0.0 | 0.0 | 0.00 | 0.00 | 0.00 | 78 | 1011.3 |
| 20260509123029 | 54 | 0 | 0.0 | 0.0 | 0.00 | 0.00 | 0.00 | 80 | 1011.3 |
| 20260509122512 | 54 | 0 | 0.0 | 0.0 | 0.00 | 0.00 | 0.00 | 81 | 1011.5 |
| 20260509122012 | 54 | 0 | 0.0 | 0.0 | 0.00 | 0.00 | 0.00 | 80 | 1011.5 |
| 20260509121536 | 53 | 0 | 0.0 | 0.0 | 0.00 | 0.00 | 0.00 | 79 | 1011.4 |
| 20260509121010 | 53 | 0 | 0.0 | 0.0 | 0.00 | 0.00 | 0.00 | 80 | 1011.4 |
| 20260509120511 | 53 | 0 | 0.0 | 0.0 | 0.00 | 0.00 | 0.00 | 82 | 1011.2 |
| 20260509120028 | 52 | 0 | 0.0 | 0.0 | 0.00 | 0.00 | 0.00 | 83 | 1011.5 |
| 20260509115511 | 52 | 0 | 0.0 | 0.0 | 0.00 | 0.00 | 0.00 | 84 | 1011.3 |
| 20260509115010 | 51 | 0 | 0.0 | 0.0 | 0.00 | 0.00 | 0.00 | 83 | 1011.3 |
| 20260509114532 | 51 | 0 | 0.0 | 0.0 | 0.00 | 0.00 | 0.00 | 84 | 1011.4 |
| 20260509114012 | 51 | 0 | 0.0 | 0.0 | 0.00 | 0.00 | 0.00 | 84 | 1010.8 |
| 20260509113511 | 51 | 0 | 0.0 | 0.0 | 0.00 | 0.00 | 0.00 | 84 | 1011.1 |
| 20260509113029 | 51 | 0 | 0.0 | 0.0 | 0.00 | 0.00 | 0.00 | 84 | 1010.8 |
| 20260509112510 | 50 | 0 | 0.0 | 0.0 | 0.00 | 0.00 | 0.00 | 84 | 1010.8 |
| 20260509112011 | 50 | 0 | 0.0 | 0.0 | 0.00 | 0.00 | 0.00 | 84 | 1010.8 |
| 20260509111529 | 50 | 0 | 0.0 | 0.0 | 0.00 | 0.00 | 0.00 | 85 | 1010.9 |
| 20260509111012 | 50 | 0 | 0.0 | 0.0 | 0.00 | 0.00 | 0.00 | 85 | 1011.0 |
| 20260509110513 | 50 | 0 | 0.0 | 0.0 | 0.00 | 0.00 | 0.00 | 85 | 1010.9 |
| 20260509110034 | 50 | 0 | 0.0 | 0.0 | 0.00 | 0.00 | 0.00 | 85 | 1010.8 |
| 20260509105512 | 50 | 0 | 0.0 | 0.0 | 0.00 | 0.00 | 0.00 | 85 | 1010.8 |
| 20260509105012 | 50 | 0 | 0.0 | 0.0 | 0.00 | 0.00 | 0.00 | 85 | 1010.7 |
| 20260509104536 | 50 | 0 | 0.0 | 0.0 | 0.00 | 0.00 | 0.00 | 84 | 1010.7 |
| 20260509104010 | 49 | 0 | 0.0 | 0.0 | 0.00 | 0.00 | 0.00 | 84 | 1010.8 |
| 20260509103513 | 49 | 0 | 0.0 | 0.0 | 0.00 | 0.00 | 0.00 | 84 | 1010.7 |
| 20260509103032 | 49 | 0 | 0.0 | 0.0 | 0.00 | 0.00 | 0.00 | 84 | 1010.7 |
| 20260509102514 | 49 | 0 | 0.0 | 0.0 | 0.00 | 0.00 | 0.00 | 84 | 1010.7 |
| 20260509102015 | 49 | 0 | 0.0 | 0.0 | 0.00 | 0.00 | 0.00 | 84 | 1010.5 |
| 20260509101534 | 50 | 0 | 0.0 | 0.0 | 0.00 | 0.00 | 0.00 | 85 | 1010.4 |
| 20260509101017 | 50 | 0 | 0.0 | 0.0 | 0.00 | 0.00 | 0.00 | 85 | 1010.4 |
| 20260509100513 | 50 | 0 | 0.0 | 0.0 | 0.00 | 0.00 | 0.00 | 85 | 1010.4 |
| 20260509100031 | 50 | 0 | 0.0 | 0.0 | 0.00 | 0.00 | 0.00 | 85 | 1010.4 |
| 20260509095514 | 50 | 0 | 0.0 | 0.0 | 0.00 | 0.00 | 0.00 | 85 | 1010.4 |
| 20260509095013 | 50 | 0 | 0.0 | 0.0 | 0.00 | 0.00 | 0.00 | 85 | 1010.5 |
| 20260509094528 | 50 | 0 | 0.0 | 0.0 | 0.00 | 0.00 | 0.00 | 85 | 1010.3 |
| 20260509094012 | 50 | 0 | 0.0 | 0.0 | 0.00 | 0.00 | 0.00 | 85 | 1010.2 |
| 20260509093515 | 50 | 0 | 0.0 | 0.0 | 0.00 | 0.00 | 0.00 | 84 | 1010.4 |
| 20260509093042 | 50 | 0 | 0.0 | 0.0 | 0.00 | 0.00 | 0.00 | 84 | 1010.4 |
| 20260509092512 | 50 | 0 | 0.0 | 0.0 | 0.00 | 0.00 | 0.00 | 85 | 1010.5 |
| 20260509092011 | 50 | 0 | 0.0 | 0.0 | 0.00 | 0.00 | 0.00 | 85 | 1010.7 |
| 20260509091530 | 50 | 0 | 0.0 | 0.0 | 0.00 | 0.00 | 0.00 | 85 | 1010.6 |
| 20260509091013 | 50 | 0 | 0.0 | 0.0 | 0.00 | 0.00 | 0.00 | 85 | 1010.4 |
| 20260509090512 | 50 | 0 | 0.0 | 0.0 | 0.00 | 0.00 | 0.00 | 84 | 1010.6 |
| 20260509090032 | 50 | 0 | 0.0 | 0.0 | 0.00 | 0.00 | 0.00 | 84 | 1010.8 |
| 20260509085515 | 49 | 0 | 0.0 | 0.0 | 0.00 | 0.00 | 0.00 | 84 | 1010.8 |
| 20260509085013 | 49 | 0 | 0.0 | 0.0 | 0.00 | 0.00 | 0.00 | 84 | 1010.7 |
| 20260509084542 | 49 | 0 | 0.0 | 0.0 | 0.00 | 0.00 | 0.00 | 84 | 1010.7 |
| 20260509084012 | 49 | 0 | 0.0 | 0.0 | 0.00 | 0.00 | 0.00 | 84 | 1010.8 |
| 20260509083512 | 49 | 0 | 0.0 | 0.0 | 0.00 | 0.00 | 0.00 | 84 | 1010.9 |
| 20260509083032 | 49 | 0 | 0.0 | 0.0 | 0.00 | 0.00 | 0.00 | 84 | 1010.9 |
| 20260509082511 | 49 | 0 | 0.0 | 0.0 | 0.00 | 0.00 | 0.00 | 84 | 1010.9 |
| 20260509082012 | 49 | 0 | 0.0 | 0.0 | 0.00 | 0.00 | 0.00 | 84 | 1010.9 |
| 20260509081537 | 49 | 0 | 0.0 | 0.0 | 0.00 | 0.00 | 0.00 | 83 | 1011.0 |
| 20260509081016 | 49 | 0 | 0.0 | 0.0 | 0.00 | 0.00 | 0.00 | 83 | 1010.9 |
| 20260509080514 | 49 | 0 | 0.0 | 0.0 | 0.00 | 0.00 | 0.00 | 83 | 1011.1 |
| 20260509080043 | 49 | 0 | 0.0 | 0.0 | 0.00 | 0.00 | 0.00 | 83 | 1011.2 |
| 20260509075517 | 49 | 0 | 0.0 | 0.0 | 0.00 | 0.00 | 0.00 | 83 | 1011.1 |
| 20260509075012 | 49 | 0 | 0.0 | 0.0 | 0.00 | 0.00 | 0.00 | 83 | 1011.1 |
| 20260509074530 | 49 | 0 | 0.0 | 0.0 | 0.00 | 0.00 | 0.00 | 82 | 1011.0 |
| 20260509074017 | 49 | 0 | 0.0 | 0.0 | 0.00 | 0.00 | 0.00 | 82 | 1011.0 |
| 20260509073513 | 49 | 0 | 0.0 | 0.0 | 0.00 | 0.00 | 0.00 | 82 | 1010.9 |
| 20260509073034 | 49 | 0 | 0.0 | 0.0 | 0.00 | 0.00 | 0.00 | 82 | 1011.1 |
| 20260509072527 | 49 | 0 | 0.0 | 0.0 | 0.00 | 0.00 | 0.00 | 82 | 1011.0 |
| 20260509072011 | 49 | 0 | 0.0 | 0.0 | 0.00 | 0.00 | 0.00 | 82 | 1011.2 |
| 20260509071529 | 49 | 0 | 0.0 | 0.0 | 0.00 | 0.00 | 0.00 | 81 | 1011.2 |
| 20260509071011 | 50 | 0 | 0.0 | 0.0 | 0.00 | 0.00 | 0.00 | 82 | 1011.1 |
| 20260509070512 | 50 | 0 | 0.0 | 0.0 | 0.00 | 0.00 | 0.00 | 81 | 1011.1 |
| 20260509070028 | 50 | 0 | 0.0 | 0.0 | 0.00 | 0.00 | 0.00 | 80 | 1011.2 |
| 20260509065511 | 50 | 0 | 0.0 | 0.0 | 0.00 | 0.00 | 0.00 | 80 | 1011.2 |
| 20260509065011 | 50 | 0 | 0.0 | 0.0 | 0.00 | 0.00 | 0.00 | 80 | 1011.2 |
| 20260509064528 | 50 | 0 | 0.0 | 0.0 | 0.00 | 0.00 | 0.00 | 80 | 1011.2 |
| 20260509064013 | 50 | 0 | 0.0 | 0.0 | 0.00 | 0.00 | 0.00 | 80 | 1011.1 |
| 20260509063508 | 50 | 0 | 0.0 | 0.0 | 0.00 | 0.00 | 0.00 | 80 | 1011.1 |
| 20260509063030 | 51 | 0 | 0.0 | 0.0 | 0.00 | 0.00 | 0.00 | 80 | 1011.2 |
| 20260509062515 | 51 | 0 | 0.0 | 0.0 | 0.00 | 0.00 | 0.00 | 80 | 1011.1 |
| 20260509062013 | 51 | 0 | 0.0 | 0.0 | 0.00 | 0.00 | 0.00 | 80 | 1011.2 |
| 20260509061532 | 51 | 0 | 0.0 | 0.0 | 0.00 | 0.00 | 0.00 | 80 | 1011.1 |
| 20260509061018 | 51 | 0 | 0.0 | 0.0 | 0.00 | 0.00 | 0.00 | 79 | 1011.0 |
| 20260509060515 | 51 | 0 | 0.0 | 0.0 | 0.00 | 0.00 | 0.00 | 79 | 1011.0 |
| 20260509060030 | 51 | 0 | 0.0 | 0.0 | 0.00 | 0.00 | 0.00 | 80 | 1011.1 |
| 20260509055515 | 51 | 0 | 0.0 | 0.0 | 0.00 | 0.00 | 0.00 | 80 | 1011.1 |
| 20260509055011 | 50 | 0 | 0.0 | 0.0 | 0.00 | 0.00 | 0.00 | 81 | 1011.2 |
| 20260509054533 | 50 | 0 | 0.0 | 0.0 | 0.00 | 0.00 | 0.00 | 81 | 1011.3 |
| 20260509054009 | 50 | 0 | 0.0 | 0.0 | 0.00 | 0.00 | 0.00 | 80 | 1011.3 |
| 20260509053509 | 50 | 0 | 0.0 | 0.0 | 0.00 | 0.00 | 0.00 | 80 | 1011.4 |
| 20260509053035 | 50 | 0 | 0.0 | 0.0 | 0.00 | 0.00 | 0.00 | 80 | 1011.6 |
| 20260509052509 | 50 | 0 | 0.0 | 0.0 | 0.00 | 0.00 | 0.00 | 80 | 1011.7 |
| 20260509052012 | 50 | 0 | 0.0 | 0.0 | 0.00 | 0.00 | 0.00 | 80 | 1011.7 |
| 20260509051535 | 50 | 0 | 0.0 | 0.0 | 0.00 | 0.00 | 0.00 | 79 | 1011.9 |
| 20260509051012 | 50 | 0 | 0.0 | 0.0 | 0.00 | 0.00 | 0.00 | 79 | 1011.9 |
| 20260509050512 | 50 | 0 | 0.0 | 0.0 | 0.00 | 0.00 | 0.00 | 78 | 1011.9 |
| 20260509050030 | 50 | 0 | 0.0 | 0.0 | 0.00 | 0.00 | 0.00 | 78 | 1011.8 |
| 20260509045514 | 50 | 0 | 0.0 | 0.0 | 0.00 | 0.00 | 0.00 | 78 | 1011.7 |
| 20260509045013 | 50 | 0 | 0.0 | 0.0 | 0.00 | 0.00 | 0.00 | 79 | 1011.8 |
| 20260509044530 | 51 | 0 | 0.0 | 0.0 | 0.00 | 0.00 | 0.00 | 78 | 1011.9 |
| 20260509044013 | 51 | 0 | 0.0 | 0.0 | 0.00 | 0.00 | 0.00 | 77 | 1012.0 |
| 20260509043510 | 51 | 0 | 0.0 | 0.0 | 0.00 | 0.00 | 0.00 | 76 | 1012.1 |
| 20260509043030 | 52 | 0 | 0.0 | 0.0 | 0.00 | 0.00 | 0.00 | 76 | 1011.9 |
| 20260509042512 | 52 | 0 | 0.0 | 0.0 | 0.00 | 0.00 | 0.00 | 76 | 1011.9 |
| 20260509042013 | 52 | 0 | 0.0 | 0.0 | 0.00 | 0.00 | 0.00 | 75 | 1012.0 |
| 20260509041528 | 52 | 0 | 0.0 | 0.0 | 0.00 | 0.00 | 0.00 | 76 | 1011.9 |
| 20260509041012 | 52 | 0 | 0.0 | 0.0 | 0.00 | 0.00 | 0.00 | 76 | 1012.1 |
| 20260509040516 | 52 | 0 | 0.0 | 0.0 | 0.00 | 0.00 | 0.00 | 75 | 1012.1 |
| 20260509040029 | 53 | 0 | 0.0 | 0.0 | 0.00 | 0.00 | 0.00 | 73 | 1012.2 |
| 20260509035515 | 53 | 0 | 0.0 | 0.0 | 0.00 | 0.00 | 0.00 | 72 | 1012.2 |
| 20260509035012 | 53 | 0 | 0.0 | 0.0 | 0.00 | 0.00 | 0.00 | 73 | 1012.2 |
| 20260509034529 | 53 | 0 | 0.0 | 0.0 | 0.00 | 0.00 | 0.00 | 73 | 1012.2 |
| 20260509034011 | 53 | 0 | 0.0 | 0.0 | 0.00 | 0.00 | 0.00 | 71 | 1012.2 |
| 20260509033512 | 53 | 0 | 0.0 | 0.0 | 0.00 | 0.00 | 0.00 | 72 | 1012.2 |
| 20260509033028 | 53 | 0 | 0.0 | 0.0 | 0.00 | 0.00 | 0.00 | 72 | 1012.2 |
| 20260509032513 | 54 | 0 | 0.0 | 0.0 | 0.00 | 0.00 | 0.00 | 72 | 1012.3 |
| 20260509032013 | 54 | 0 | 0.0 | 0.0 | 0.00 | 0.00 | 0.00 | 72 | 1012.2 |
| 20260509031532 | 54 | 0 | 0.0 | 0.0 | 0.00 | 0.00 | 0.00 | 70 | 1012.1 |
| 20260509031012 | 54 | 0 | 0.0 | 0.0 | 0.00 | 0.00 | 0.00 | 71 | 1012.2 |
| 20260509030514 | 55 | 0 | 0.0 | 0.0 | 0.00 | 0.00 | 0.00 | 72 | 1012.3 |
| 20260509030028 | 55 | 0 | 0.0 | 0.0 | 0.00 | 0.00 | 0.00 | 69 | 1012.3 |
| 20260509025513 | 55 | 0 | 0.0 | 0.0 | 0.00 | 0.00 | 0.00 | 71 | 1012.5 |
| 20260509025013 | 55 | 0 | 0.0 | 0.0 | 0.00 | 0.00 | 0.00 | 71 | 1012.3 |
| 20260509024531 | 55 | 0 | 0.0 | 0.0 | 0.00 | 0.00 | 0.00 | 67 | 1012.1 |
| 20260509024013 | 56 | 0 | 0.0 | 0.0 | 0.00 | 0.00 | 0.00 | 68 | 1012.1 |
| 20260509023514 | 55 | 0 | 0.0 | 0.0 | 0.00 | 0.00 | 0.00 | 66 | 1012.1 |
| 20260509023037 | 55 | 0 | 0.0 | 0.0 | 0.00 | 0.00 | 0.00 | 65 | 1012.3 |
| 20260509022512 | 55 | 0 | 0.0 | 0.0 | 0.00 | 0.00 | 0.00 | 67 | 1012.5 |
| 20260509022012 | 55 | 0 | 0.0 | 0.0 | 0.00 | 0.00 | 0.00 | 68 | 1012.5 |
| 20260509021533 | 55 | 0 | 0.0 | 0.0 | 0.00 | 0.00 | 0.00 | 70 | 1012.7 |
| 20260509021014 | 55 | 0 | 0.0 | 0.0 | 0.00 | 0.00 | 0.00 | 69 | 1012.7 |
| 20260509020511 | 55 | 0 | 0.0 | 0.0 | 0.00 | 0.00 | 0.00 | 71 | 1012.4 |
| 20260509020035 | 55 | 0 | 0.0 | 0.0 | 0.00 | 0.00 | 0.00 | 68 | 1012.4 |
| 20260509015515 | 55 | 0 | 0.0 | 0.0 | 0.00 | 0.00 | 0.00 | 69 | 1012.3 |
| 20260509015012 | 55 | 0 | 0.0 | 0.0 | 0.00 | 0.00 | 0.00 | 65 | 1012.1 |
| 20260509014539 | 54 | 0 | 0.0 | 0.0 | 0.00 | 0.00 | 0.00 | 68 | 1012.2 |
| 20260509014012 | 54 | 0 | 0.0 | 0.0 | 0.00 | 0.00 | 0.00 | 66 | 1012.2 |
| 20260509013512 | 54 | 0 | 0.0 | 0.0 | 0.00 | 0.00 | 0.00 | 65 | 1012.2 |
| 20260509013035 | 54 | 0 | 0.0 | 0.0 | 0.00 | 0.00 | 0.00 | 64 | 1012.1 |
| 20260509012511 | 55 | 0 | 0.0 | 0.0 | 0.00 | 0.00 | 0.00 | 63 | 1011.9 |
| 20260509012011 | 55 | 0 | 0.0 | 0.0 | 0.00 | 0.00 | 0.00 | 64 | 1011.9 |
| 20260509011533 | 55 | 0 | 0.0 | 0.0 | 0.00 | 0.00 | 0.00 | 62 | 1011.9 |